Eau Claire, WI

5:58 PM CDT on May 23, 2017 (GMT -0500)
Chippewa Valley Regional

Weather History for KEAU - August, 2012

Change the Weather History Date:

Saturday, August 25, 2012

  Actual Average Record
Temperature  
Mean Temperature 73 °F 68 °F  
Max Temperature 85 °F 79 °F 99 °F (1948)
Min Temperature 60 °F 57 °F 40 °F (1958)
Degree Days  
Heating Degree Days 0 1  
Month to date heating degree days 25 20  
Since 1 June heating degree days 53 93  
Since 1 July heating degree days 25 31  
Cooling Degree Days 8 4  
Month to date cooling degree days 100 137  
Year to date cooling degree days 714 503  
Since 1 June cooling degree days 644 471  
Growing Degree Days 23 (Base 50)    
Moisture  
Dew Point 61 °F    
Average Humidity 65    
Maximum Humidity 90    
Minimum Humidity 40    
Precipitation  
Precipitation 0.00 in 0.13 in 1.61 in (1932)
Month to date precipitation 1.88 3.68  
Year to date precipitation 18.98 21.33  
Snow  
Snow 0.00 in 0.00 in 0.00 in ()
Month to date snowfall 0.0 0.0  
Since 1 June snowfall 0.0 0.0  
Since 1 July snowfall 0.0 0.0  
Snow Depth 0.00 in    
Sea Level Pressure  
Sea Level Pressure 29.93 in    
Wind  
Wind Speed 5 mph (SW)    
Max Wind Speed 13 mph    
Max Gust Speed 17 mph    
Visibility 10 miles    
Events      
T = Trace of Precipitation, MM = Missing Value Source: NWS Daily Summary

Daily Weather History Graph

Daily Weather History Graph

Search for Another Location

Airport or City:

Trip Planner

Search our weather history database for the weather conditions in past years. The results will help you decide how hot, cold, wet, or windy it might be!

Date:

Astronomy

Aug. 25, 2012 Rise Set
Actual Time 6:20 AM CDT 7:54 PM CDT
Civil Twilight 5:49 AM CDT 8:25 PM CDT
Nautical Twilight 5:12 AM CDT 9:02 PM CDT
Astronomical Twilight 4:32 AM CDT 9:42 PM CDT
Moon 3:36 PM CDT (8/25) No Moon Set
Length of Visible Light 14h 35m
Length of Day
13h 34m
Waxing Gibbous, 63% of the Moon is Illuminated
Aug 25
Waxing Gibbous
Aug 31
Full
Sep 8
Last Quarter
Sep 15
New
Sep 22
First Quarter

Hourly Weather History & Observations

Time (CDT) Temp. Heat Index Dew Point Humidity Pressure Visibility Wind Dir Wind Speed Gust Speed Precip Events Conditions
12:56 AM 72.0 °F - 60.1 °F 66% 29.89 in 10.0 mi South 5.8 mph - N/A   Clear
1:56 AM 69.1 °F - 60.1 °F 73% 29.91 in 10.0 mi SSW 4.6 mph - N/A   Scattered Clouds
2:56 AM 68.0 °F - 59.0 °F 73% 29.91 in 10.0 mi South 6.9 mph - N/A   Clear
3:56 AM 66.0 °F - 59.0 °F 78% 29.91 in 10.0 mi Calm Calm - N/A   Clear
4:56 AM 64.9 °F - 59.0 °F 81% 29.91 in 10.0 mi Calm Calm - N/A   Clear
5:56 AM 62.1 °F - 59.0 °F 90% 29.92 in 9.0 mi Calm Calm - N/A   Clear
6:56 AM 62.1 °F - 57.9 °F 86% 29.92 in 10.0 mi Calm Calm - N/A   Clear
7:56 AM 70.0 °F - 59.0 °F 68% 29.93 in 10.0 mi SSE 5.8 mph - N/A   Clear
8:56 AM 75.0 °F - 60.1 °F 60% 29.94 in 10.0 mi South 5.8 mph - N/A   Clear
9:56 AM 78.1 °F - 57.9 °F 50% 29.94 in 10.0 mi South 9.2 mph - N/A   Clear
10:56 AM 80.1 °F 80.6 °F 57.9 °F 47% 29.93 in 10.0 mi South 6.9 mph - N/A   Clear
11:56 AM 82.9 °F 82.6 °F 57.9 °F 42% 29.93 in 10.0 mi SSW 5.8 mph - N/A   Clear
12:56 PM 82.9 °F 82.6 °F 57.9 °F 42% 29.92 in 10.0 mi SSW 10.4 mph - N/A   Clear
1:56 PM 84.2 °F 83.5 °F 57.2 °F 40% 29.94 in 10.0 mi SW 9.2 mph - N/A   Clear
2:56 PM 84.0 °F 84.0 °F 60.1 °F 44% 29.92 in 10.0 mi West 8.1 mph - N/A   Clear
3:56 PM 81.0 °F 81.7 °F 61.0 °F 50% 29.93 in 10.0 mi West 11.5 mph - N/A   Clear
4:56 PM 77.0 °F - 64.0 °F 64% 29.95 in 10.0 mi WNW 10.4 mph - N/A   Clear
5:56 PM 77.0 °F - 64.0 °F 64% 29.94 in 10.0 mi WNW 3.5 mph - N/A   Partly Cloudy
6:56 PM 75.9 °F - 64.0 °F 67% 29.94 in 10.0 mi WSW 3.5 mph - N/A   Clear
7:56 PM 73.0 °F - 64.9 °F 76% 29.94 in 10.0 mi WNW 3.5 mph - N/A   Clear
8:56 PM 72.0 °F - 64.0 °F 76% 29.95 in 10.0 mi Calm Calm - N/A   Partly Cloudy
9:56 PM 72.0 °F - 64.9 °F 78% 29.96 in 10.0 mi Calm Calm - N/A   Mostly Cloudy
10:56 PM 71.1 °F - 64.9 °F 81% 29.96 in 10.0 mi Calm Calm - N/A   Overcast
11:56 PM 72.0 °F - 64.0 °F 76% 29.95 in 10.0 mi ESE 5.8 mph - N/A   Overcast